Content
SEND FEEDBACK

Daily
Averages
Monthly
Summary
United States of America

BIG WATER, UTAH


Home > North America > United States > Utah
Elevation: 4166 feet     Latitude: 37 05N     Longitude: 111 40W

WEATHER
 
SELECT A DAY
Number of Records: 198,591;   Date Range: 1/1/95 - 12/25/14
 
SHARE

PRINT THIS DATA

[ ← Previous Day ]
WEATHER ALMANAC - FEBRUARY 3, 2013
[ Next Day → ]
[ °C ]   °F
Weather ElementAverageHighLow
Temperature40.3 °F46.9 °F (4:53 pm)35.1 °F (11:53 pm)
Dewpoint29.1 °F30.2 °F (4:53 am)28 °F (1:53 am)
Humidity65 %76 % (5:53 am)50 % (4:53 pm)
Barometer30.16 in30.27 in (1:53 am)30.07 in (4:53 pm)
Wind Speed1.1 mph5.8 mph (4:53 pm)
Weather ElementAverage
Visibility9.6 mi
Wind DirectionNE (43.9 °)

Weather ElementTotal
Precipitation---
Heating Degree Days24 (Base 65)
Averaged from 23 records on February 3, 2013
WEATHER CONDITIONS BREAKOUT
WIND DIRECTION BREAKOUT
WEATHER BY HOUR - FEBRUARY 3, 2013
[ °C ]   °F
Local TimeTemperatureDewpointHumidityBarometerVisibilityWind DirectionWind SpeedGust SpeedPrecipitationEventsConditions
1:53 AM39.0 °F28.0 °F65 %30.27 in9.0 miCalmClear
2:53 AM39.0 °F28.0 °F65 %30.25 in10.0 miCalmClear
3:53 AM37.9 °F28.0 °F68 %30.21 in10.0 miCalmClear
4:53 AM37.4 °F30.2 °F75 %30.23 in10.0 miNNW (330°)4.6 mphClear
5:53 AM37.0 °F30.0 °F76 %30.20 in10.0 miSE (140°)4.6 mphClear
6:53 AM37.9 °F30.0 °F73 %30.19 in10.0 miCalmClear
7:53 AM37.9 °F28.9 °F70 %30.22 in10.0 miCalmMostly Cloudy
8:53 AM39.0 °F30.0 °F70 %30.22 in10.0 miCalmOvercast
9:53 AM41.0 °F28.9 °F62 %30.20 in10.0 miCalmOvercast
10:53 AM42.1 °F28.9 °F60 %30.20 in10.0 miCalmPartly Cloudy
11:53 AM42.1 °F30.0 °F62 %30.19 in10.0 miCalmOvercast
12:53 PM44.1 °F30.0 °F58 %30.16 in10.0 miNorth (360°)3.5 mphOvercast
1:53 PM45.0 °F30.0 °F56 %30.12 in10.0 miCalmOvercast
2:53 PM46.0 °F30.0 °F54 %30.09 in10.0 miNNE (30°)3.5 mphMostly Cloudy
3:53 PM45.0 °F30.0 °F56 %30.09 in10.0 miCalmOvercast
4:53 PM46.9 °F28.9 °F50 %30.07 in10.0 miNE (50°)5.8 mphClear
5:53 PM42.1 °F28.9 °F60 %30.09 in10.0 miEast (100°)3.5 mphClear
6:53 PM41.0 °F28.9 °F62 %30.10 in10.0 miCalmClear
7:53 PM39.0 °F28.9 °F67 %30.12 in8.0 miCalmClear
8:53 PM39.0 °F28.9 °F67 %30.12 in10.0 miCalmClear
9:53 PM37.0 °F28.0 °F70 %30.13 in10.0 miCalmClear
10:53 PM37.0 °F28.9 °F73 %30.12 in8.0 miCalmClear
11:53 PM35.1 °F28.0 °F76 %30.13 in5.0 miCalmHaze
Hourly data recorded from KPGA, located miles away from Big Water, Utah







STORIES FROM OUR PARTNERS